sat.trackr.live / text

‹ back to catalog

SCS-01 A

NORAD 63982 · 2025-100A

PAYLOAD ACTIVE UNKNOWN

§ Identity

Operator
Country
PRC
Launch date
2025-05-14
Launch site
JSC
Launch vehicle
Mass (kg)
RCS (m²)

External: N2YO · Heavens-Above · Gunter

§ Orbital elements

Epoch: 2026-05-24T18:16:40.556064Z

Period
94.74 min
Inclination
97.3675°
Eccentricity
0.0030580
Mean motion
15.19876603 rev/d
Perigee alt
485.2 km
Apogee alt
527.3 km
Semi-major
6,884.4 km
B*
1.9099e-4
RAAN
218.0864°
Arg perigee
87.8153°
Mean anomaly
272.6583°
Rev number
5,708

§ Raw data

SCS-01 A1 63982U 25100A   26144.76158051  .00004080  00000+0  19099-3 0  99982 63982  97.3675 218.0864 0030580  87.8153 272.6583 15.19876603 57083

JSON: /api/v1/satellites/63982 · /tle

For live sub-satellite position, see the globe view (requires WebGL).

§ Visibility from observer

Set your observer location to see the next 7 days of passes ≥ 10°. The values pass through the URL so the page stays shareable.

No JS? Fill the form by hand. The geolocation button needs JavaScript.